TVF4221 EBBR-LFPO

Flight info

Callsign TVF4221
Flight time 0h 53m
Altitude 17000
Route CIV Y50 MATIX
Aircraft A320/M-SDE3FGHIRWY/LB1

Departure

Time 2026-05-08 08:13
Airport Brussels Airport (EBBR)

Arrival

Time 2026-05-08 09:07
Airport Paris-Orly Airport (LFPO)
Time Latitude Longitude Altitude Speed Heading
2026-05-08 07:54 50.90196 4.47819 116 ft 0 kts 155°
2026-05-08 08:03 50.90198 4.47817 121 ft 3 kts 155°
2026-05-08 08:03 50.90222 4.47800 121 ft 4 kts 154°
2026-05-08 08:03 50.90245 4.47779 121 ft 4 kts 143°
2026-05-08 08:03 50.90261 4.47752 121 ft 4 kts 82°
2026-05-08 08:04 50.90260 4.47743 121 ft 0 kts 65°
2026-05-08 08:05 50.90263 4.47754 118 ft 7 kts 65°
2026-05-08 08:06 50.90313 4.47929 117 ft 22 kts 65°
2026-05-08 08:06 50.90380 4.48155 120 ft 22 kts 64°
2026-05-08 08:06 50.90443 4.48371 120 ft 21 kts 65°
2026-05-08 08:06 50.90509 4.48591 121 ft 23 kts 64°
2026-05-08 08:07 50.90570 4.48818 117 ft 21 kts 66°
2026-05-08 08:07 50.90632 4.49029 119 ft 20 kts 61°
2026-05-08 08:07 50.90623 4.49137 122 ft 8 kts 125°
2026-05-08 08:07 50.90585 4.49176 127 ft 9 kts 155°
2026-05-08 08:08 50.90474 4.49247 118 ft 26 kts 158°
2026-05-08 08:08 50.90311 4.49364 124 ft 24 kts 157°
2026-05-08 08:08 50.90159 4.49356 130 ft 27 kts 197°
2026-05-08 08:08 50.89984 4.49277 133 ft 25 kts 196°
2026-05-08 08:09 50.89822 4.49209 142 ft 23 kts 194°
2026-05-08 08:09 50.89676 4.49160 150 ft 20 kts 192°
2026-05-08 08:09 50.89563 4.49060 156 ft 18 kts 203°
2026-05-08 08:09 50.89446 4.49021 160 ft 16 kts 190°
2026-05-08 08:10 50.89379 4.49030 163 ft 5 kts 111°
2026-05-08 08:10 50.89368 4.49052 164 ft 2 kts 133°
2026-05-08 08:10 50.89366 4.49054 165 ft 0 kts 133°
2026-05-08 08:11 50.89326 4.49084 167 ft 14 kts 175°
2026-05-08 08:11 50.89219 4.49049 174 ft 13 kts 195°
2026-05-08 08:12 50.89155 4.49074 176 ft 8 kts 120°
2026-05-08 08:12 50.89158 4.49137 176 ft 0 kts 70°
2026-05-08 08:12 50.89169 4.49186 176 ft 26 kts 70°
2026-05-08 08:12 50.89343 4.49937 177 ft 116 kts 69°
2026-05-08 08:13 50.89717 4.51505 235 ft 178 kts 69°
2026-05-08 08:13 50.90181 4.53324 1072 ft 181 kts 66°
2026-05-08 08:13 50.90724 4.55120 2070 ft 182 kts 62°
2026-05-08 08:13 50.91338 4.57002 2737 ft 203 kts 62°
2026-05-08 08:14 50.92029 4.59098 3167 ft 226 kts 62°
2026-05-08 08:14 50.92803 4.61454 3647 ft 249 kts 63°
2026-05-08 08:14 50.93603 4.63951 4418 ft 258 kts 67°
2026-05-08 08:14 50.94230 4.66648 5307 ft 263 kts 72°
2026-05-08 08:15 50.94791 4.69424 6210 ft 267 kts 73°
2026-05-08 08:15 50.95331 4.72226 7100 ft 271 kts 74°
2026-05-08 08:15 50.95563 4.75202 7940 ft 275 kts 97°
2026-05-08 08:15 50.94965 4.78078 8761 ft 279 kts 122°
2026-05-08 08:16 50.93618 4.80300 9577 ft 284 kts 148°
2026-05-08 08:16 50.91809 4.81620 10322 ft 291 kts 158°
2026-05-08 08:16 50.89810 4.82622 10609 ft 314 kts 173°
2026-05-08 08:16 50.87585 4.82233 10837 ft 337 kts 201°
2026-05-08 08:17 50.85579 4.80158 11145 ft 355 kts 225°
2026-05-08 08:17 50.84156 4.77253 11709 ft 361 kts 239°
2026-05-08 08:17 50.83090 4.73908 12422 ft 363 kts 247°
2026-05-08 08:17 50.82180 4.70167 13150 ft 366 kts 250°
2026-05-08 08:18 50.81327 4.66353 13862 ft 369 kts 250°
2026-05-08 08:18 50.80437 4.62537 14538 ft 371 kts 249°
2026-05-08 08:18 50.79473 4.58736 15176 ft 374 kts 247°
2026-05-08 08:18 50.78436 4.54941 15822 ft 377 kts 246°
2026-05-08 08:19 50.77349 4.51158 16442 ft 380 kts 245°
2026-05-08 08:19 50.76227 4.47349 16937 ft 384 kts 245°
2026-05-08 08:19 50.75093 4.43529 17082 ft 386 kts 245°
2026-05-08 08:19 50.73925 4.39586 17112 ft 404 kts 245°
2026-05-08 08:20 50.72724 4.35499 17105 ft 415 kts 245°
2026-05-08 08:20 50.71922 4.32755 17112 ft 417 kts 245°
2026-05-08 08:20 50.70713 4.28595 17109 ft 417 kts 245°
2026-05-08 08:20 50.69502 4.24432 17108 ft 418 kts 245°
2026-05-08 08:21 50.68287 4.20265 17109 ft 418 kts 245°
2026-05-08 08:21 50.67074 4.16112 17109 ft 418 kts 245°
2026-05-08 08:21 50.65857 4.11955 17108 ft 418 kts 245°
2026-05-08 08:21 50.64636 4.07798 17108 ft 418 kts 245°
2026-05-08 08:22 50.63412 4.03642 17110 ft 418 kts 245°
2026-05-08 08:22 50.62186 3.99494 17111 ft 418 kts 245°
2026-05-08 08:22 50.60954 3.95347 17113 ft 418 kts 244°
2026-05-08 08:22 50.59401 3.91496 17113 ft 418 kts 231°
2026-05-08 08:23 50.57298 3.88336 17114 ft 419 kts 217°
2026-05-08 08:23 50.54768 3.86086 17115 ft 420 kts 203°
2026-05-08 08:23 50.51948 3.84856 17116 ft 422 kts 189°
2026-05-08 08:23 50.49013 3.84714 17115 ft 424 kts 176°
2026-05-08 08:24 50.46081 3.85206 17117 ft 424 kts 175°
2026-05-08 08:24 50.43142 3.85717 17117 ft 425 kts 175°
2026-05-08 08:24 50.40200 3.86229 17118 ft 425 kts 175°
2026-05-08 08:24 50.37263 3.86735 17121 ft 425 kts 175°
2026-05-08 08:25 50.34337 3.87238 17120 ft 425 kts 175°
2026-05-08 08:25 50.31374 3.87747 17120 ft 426 kts 175°
2026-05-08 08:25 50.28435 3.88250 17120 ft 426 kts 175°
2026-05-08 08:25 50.25490 3.88752 17122 ft 426 kts 175°
2026-05-08 08:26 50.22547 3.89255 17122 ft 426 kts 175°
2026-05-08 08:26 50.19601 3.89757 17124 ft 426 kts 175°
2026-05-08 08:26 50.16653 3.90256 17122 ft 426 kts 175°
2026-05-08 08:26 50.13705 3.90754 17123 ft 426 kts 175°
2026-05-08 08:27 50.10764 3.91253 17123 ft 426 kts 175°
2026-05-08 08:27 50.07815 3.91756 17122 ft 426 kts 175°
2026-05-08 08:27 50.04874 3.92259 17123 ft 426 kts 175°
2026-05-08 08:27 50.01925 3.92761 17123 ft 426 kts 175°
2026-05-08 08:28 49.98976 3.93259 17124 ft 426 kts 175°
2026-05-08 08:28 49.96031 3.93758 17124 ft 426 kts 175°
2026-05-08 08:28 49.93115 3.94250 17122 ft 426 kts 175°
2026-05-08 08:28 49.90172 3.94742 17119 ft 426 kts 175°
2026-05-08 08:29 49.87220 3.95234 17118 ft 426 kts 175°
2026-05-08 08:29 49.84279 3.95723 17119 ft 426 kts 175°
2026-05-08 08:29 49.81328 3.96213 17117 ft 426 kts 175°
2026-05-08 08:29 49.78376 3.96706 17120 ft 427 kts 175°
2026-05-08 08:30 49.75423 3.97199 17120 ft 426 kts 175°
2026-05-08 08:30 49.72471 3.97691 17119 ft 426 kts 175°
2026-05-08 08:30 49.66572 3.98673 17114 ft 426 kts 175°
2026-05-08 08:31 49.63626 3.99170 17116 ft 426 kts 175°
2026-05-08 08:31 49.60676 3.99671 17115 ft 426 kts 175°
2026-05-08 08:31 49.57732 4.00166 17114 ft 426 kts 175°
2026-05-08 08:31 49.54846 4.00646 17081 ft 407 kts 175°
2026-05-08 08:32 49.52088 4.01106 17089 ft 393 kts 175°
2026-05-08 08:32 49.49380 4.01554 17095 ft 390 kts 175°
2026-05-08 08:32 49.46688 4.01993 17089 ft 389 kts 175°
2026-05-08 08:32 49.43991 4.02230 17089 ft 387 kts 185°
2026-05-08 08:33 49.41361 4.01493 17090 ft 385 kts 199°
2026-05-08 08:33 49.38952 3.99740 17086 ft 383 kts 214°
2026-05-08 08:33 49.36939 3.97135 16923 ft 375 kts 228°
2026-05-08 08:33 49.35444 3.93972 16656 ft 360 kts 240°
2026-05-08 08:34 49.34320 3.90613 16529 ft 348 kts 243°
2026-05-08 08:34 49.33247 3.87364 16403 ft 336 kts 243°
2026-05-08 08:34 49.32199 3.84217 16274 ft 326 kts 242°
2026-05-08 08:34 49.31183 3.81180 16144 ft 315 kts 242°
2026-05-08 08:35 49.30193 3.78233 16018 ft 306 kts 242°
2026-05-08 08:35 49.29230 3.75375 15893 ft 298 kts 242°
2026-05-08 08:35 49.28296 3.72596 15765 ft 290 kts 242°
2026-05-08 08:35 49.27386 3.69886 15636 ft 282 kts 242°
2026-05-08 08:36 49.26510 3.67241 15510 ft 275 kts 245°
2026-05-08 08:36 49.26002 3.64476 15382 ft 268 kts 260°
2026-05-08 08:36 49.25771 3.61687 15266 ft 260 kts 262°
2026-05-08 08:36 49.25575 3.58961 15099 ft 256 kts 262°
2026-05-08 08:37 49.25381 3.56221 14658 ft 263 kts 262°
2026-05-08 08:37 49.25181 3.53404 14207 ft 269 kts 262°
2026-05-08 08:37 49.24975 3.50527 13754 ft 274 kts 262°
2026-05-08 08:37 49.24763 3.47598 13297 ft 279 kts 262°
2026-05-08 08:38 49.24543 3.44623 12848 ft 284 kts 262°
2026-05-08 08:38 49.24317 3.41601 12396 ft 287 kts 262°
2026-05-08 08:38 49.24087 3.38553 11960 ft 290 kts 262°
2026-05-08 08:38 49.23853 3.35467 11504 ft 293 kts 262°
2026-05-08 08:39 49.23615 3.32364 11058 ft 295 kts 262°
2026-05-08 08:39 49.23371 3.29244 10606 ft 297 kts 262°
2026-05-08 08:39 49.23122 3.26106 10166 ft 297 kts 262°
2026-05-08 08:39 49.22869 3.22955 9707 ft 299 kts 262°
2026-05-08 08:40 49.22610 3.19802 9255 ft 299 kts 262°
2026-05-08 08:40 49.22344 3.16641 8812 ft 299 kts 262°
2026-05-08 08:40 49.22076 3.13492 8369 ft 299 kts 262°
2026-05-08 08:40 49.21807 3.10335 7918 ft 299 kts 262°
2026-05-08 08:41 49.21538 3.07196 7464 ft 298 kts 262°
2026-05-08 08:41 49.21268 3.04061 7020 ft 297 kts 262°
2026-05-08 08:41 49.21001 3.00939 6576 ft 295 kts 262°
2026-05-08 08:41 49.20737 2.97834 6164 ft 292 kts 262°
2026-05-08 08:42 49.20480 2.94826 6084 ft 278 kts 262°
2026-05-08 08:42 49.20236 2.91990 6091 ft 260 kts 262°
2026-05-08 08:42 49.20033 2.89639 6087 ft 245 kts 262°
2026-05-08 08:42 49.19824 2.87207 6087 ft 235 kts 262°
2026-05-08 08:43 49.19611 2.84731 6000 ft 236 kts 262°
2026-05-08 08:43 49.19398 2.82246 5731 ft 234 kts 262°
2026-05-08 08:43 49.19186 2.79796 5461 ft 232 kts 262°
2026-05-08 08:43 49.18974 2.77350 5181 ft 231 kts 262°
2026-05-08 08:44 49.18765 2.74926 4902 ft 230 kts 262°
2026-05-08 08:44 49.18557 2.72502 4623 ft 229 kts 262°
2026-05-08 08:44 49.18350 2.70087 4354 ft 229 kts 262°
2026-05-08 08:44 49.18143 2.67687 4094 ft 228 kts 262°
2026-05-08 08:45 49.17743 2.65408 4001 ft 225 kts 246°
2026-05-08 08:45 49.17070 2.63240 4001 ft 227 kts 243°
2026-05-08 08:45 49.16345 2.61067 4016 ft 227 kts 242°
2026-05-08 08:45 49.15631 2.58947 4011 ft 227 kts 242°
2026-05-08 08:46 49.14906 2.56796 4005 ft 227 kts 242°
2026-05-08 08:46 49.14175 2.54628 3995 ft 227 kts 242°
2026-05-08 08:46 49.13461 2.52510 4000 ft 227 kts 242°
2026-05-08 08:46 49.12736 2.50366 3999 ft 227 kts 242°
2026-05-08 08:47 49.12013 2.48229 4009 ft 226 kts 242°
2026-05-08 08:47 49.11290 2.46094 4005 ft 226 kts 242°
2026-05-08 08:47 49.10566 2.43962 4017 ft 227 kts 242°
2026-05-08 08:47 49.09843 2.41830 3999 ft 226 kts 242°
2026-05-08 08:48 49.09120 2.39698 4002 ft 226 kts 242°
2026-05-08 08:48 49.08396 2.37568 4018 ft 226 kts 242°
2026-05-08 08:48 49.07672 2.35437 4009 ft 226 kts 242°
2026-05-08 08:48 49.06948 2.33306 4000 ft 226 kts 242°
2026-05-08 08:49 49.06222 2.31172 4005 ft 227 kts 242°
2026-05-08 08:49 49.05496 2.29040 4006 ft 227 kts 242°
2026-05-08 08:49 49.04773 2.26904 3995 ft 226 kts 242°
2026-05-08 08:49 49.04050 2.24768 4005 ft 227 kts 242°
2026-05-08 08:50 49.03317 2.22608 3999 ft 227 kts 242°
2026-05-08 08:50 49.02591 2.20466 4014 ft 227 kts 242°
2026-05-08 08:50 49.01874 2.18356 4010 ft 227 kts 242°
2026-05-08 08:50 49.01149 2.16215 4003 ft 227 kts 242°
2026-05-08 08:51 49.00425 2.14081 4005 ft 227 kts 242°
2026-05-08 08:51 48.99699 2.11946 4003 ft 227 kts 242°
2026-05-08 08:51 48.98973 2.09809 4009 ft 227 kts 242°
2026-05-08 08:51 48.98245 2.07670 4004 ft 228 kts 243°
2026-05-08 08:52 48.97513 2.05543 4004 ft 227 kts 242°
2026-05-08 08:52 48.96783 2.03403 4016 ft 228 kts 242°
2026-05-08 08:52 48.96055 2.01267 4018 ft 227 kts 243°
2026-05-08 08:52 48.95327 1.99138 4009 ft 227 kts 242°
2026-05-08 08:53 48.94597 1.97002 4003 ft 227 kts 242°
2026-05-08 08:53 48.93867 1.94865 4018 ft 228 kts 242°
2026-05-08 08:53 48.93139 1.92726 3998 ft 227 kts 242°
2026-05-08 08:53 48.92411 1.90596 4018 ft 228 kts 242°
2026-05-08 08:54 48.91671 1.88431 4011 ft 227 kts 242°
2026-05-08 08:54 48.90956 1.86341 4007 ft 227 kts 242°
2026-05-08 08:54 48.90226 1.84209 4017 ft 227 kts 242°
2026-05-08 08:54 48.89485 1.82045 4000 ft 227 kts 242°
2026-05-08 08:55 48.88756 1.79915 4008 ft 228 kts 242°
2026-05-08 08:55 48.88036 1.77809 4018 ft 228 kts 242°
2026-05-08 08:55 48.87306 1.75680 4003 ft 226 kts 242°
2026-05-08 08:55 48.86576 1.73552 4010 ft 228 kts 242°
2026-05-08 08:56 48.85847 1.71430 4000 ft 227 kts 242°
2026-05-08 08:56 48.85093 1.69316 4017 ft 227 kts 234°
2026-05-08 08:56 48.83961 1.67692 3998 ft 224 kts 207°
2026-05-08 08:56 48.82479 1.67061 4012 ft 223 kts 178°
2026-05-08 08:57 48.80988 1.67563 3993 ft 220 kts 150°
2026-05-08 08:57 48.79805 1.69004 4014 ft 220 kts 133°
2026-05-08 08:57 48.78730 1.70673 4007 ft 221 kts 134°
2026-05-08 08:57 48.77655 1.72335 4000 ft 221 kts 134°
2026-05-08 08:58 48.76575 1.73997 4004 ft 221 kts 134°
2026-05-08 08:58 48.75498 1.75655 4009 ft 221 kts 134°
2026-05-08 08:58 48.74416 1.77321 4016 ft 222 kts 134°
2026-05-08 08:58 48.73334 1.78978 4003 ft 221 kts 134°
2026-05-08 08:59 48.72250 1.80631 4012 ft 221 kts 134°
2026-05-08 08:59 48.71166 1.82282 4000 ft 221 kts 134°
2026-05-08 08:59 48.70089 1.83925 4004 ft 221 kts 134°
2026-05-08 08:59 48.69007 1.85577 4009 ft 221 kts 134°
2026-05-08 09:00 48.67931 1.87221 4002 ft 220 kts 134°
2026-05-08 09:00 48.66847 1.88875 4018 ft 221 kts 131°
2026-05-08 09:00 48.65769 1.90518 4000 ft 221 kts 134°
2026-05-08 09:00 48.64690 1.92162 4004 ft 220 kts 134°
2026-05-08 09:01 48.63610 1.93805 4010 ft 221 kts 134°
2026-05-08 09:01 48.62530 1.95453 4008 ft 221 kts 133°
2026-05-08 09:01 48.61658 1.97338 4004 ft 219 kts 113°
2026-05-08 09:01 48.61276 1.99565 4010 ft 219 kts 92°
2026-05-08 09:02 48.61441 2.01832 4012 ft 219 kts 72°
2026-05-08 09:02 48.62090 2.03916 4003 ft 219 kts 62°
2026-05-08 09:02 48.62574 2.05260 4002 ft 219 kts 62°
2026-05-08 09:02 48.63305 2.07293 3840 ft 220 kts 62°
2026-05-08 09:03 48.64032 2.09323 3579 ft 220 kts 62°
2026-05-08 09:03 48.64755 2.11343 3323 ft 218 kts 62°
2026-05-08 09:03 48.65468 2.13344 3045 ft 214 kts 62°
2026-05-08 09:03 48.66165 2.15293 2746 ft 204 kts 63°
2026-05-08 09:04 48.66827 2.17150 2505 ft 198 kts 63°
2026-05-08 09:04 48.67462 2.18932 2235 ft 186 kts 63°
2026-05-08 09:04 48.68071 2.20640 1985 ft 183 kts 63°
2026-05-08 09:04 48.68659 2.22291 1738 ft 173 kts 64°
2026-05-08 09:05 48.69205 2.23828 1516 ft 158 kts 63°
2026-05-08 09:05 48.69715 2.25264 1319 ft 153 kts 62°
2026-05-08 09:05 48.70200 2.26626 1141 ft 141 kts 63°
2026-05-08 09:05 48.70653 2.27903 942 ft 136 kts 62°
2026-05-08 09:06 48.71097 2.29154 766 ft 134 kts 62°
2026-05-08 09:06 48.71538 2.30397 590 ft 134 kts 62°
2026-05-08 09:06 48.71978 2.31639 405 ft 134 kts 62°
2026-05-08 09:06 48.72412 2.32862 298 ft 123 kts 62°
2026-05-08 09:07 48.72672 2.33601 294 ft 36 kts 62°
2026-05-08 09:07 48.72734 2.33775 297 ft 22 kts 64°
2026-05-08 09:07 48.72786 2.34106 296 ft 40 kts 81°
2026-05-08 09:07 48.72823 2.34528 294 ft 40 kts 82°
2026-05-08 09:08 48.72861 2.34935 293 ft 38 kts 82°
2026-05-08 09:08 48.72889 2.35260 293 ft 19 kts 86°
2026-05-08 09:08 48.72870 2.35430 296 ft 16 kts 128°
2026-05-08 09:08 48.72769 2.35466 297 ft 13 kts 171°
2026-05-08 09:09 48.72679 2.35489 293 ft 13 kts 170°
2026-05-08 09:09 48.72607 2.35547 295 ft 12 kts 116°
2026-05-08 09:09 48.72626 2.35658 296 ft 11 kts 57°
2026-05-08 09:09 48.72660 2.35682 291 ft 2 kts 81°
2026-05-08 09:10 48.72660 2.35705 291 ft 2 kts 85°
2026-05-08 09:10 48.72664 2.35763 291 ft 0 kts 86°